User: anonymous   Login
Location: Invercargill
(46.4000°S, 168.3500°E)
Time: 18:04:08
(UTC+13:00)
Language:

FREGAT/IRIS - Orbit

View from above orbital plane
View from above orbital plane
View from above satellite
View from above satellite

Ground track
Ground track

The orbit data is extracted from the following two-line orbital elements,

1 35867U 09049C   19081.81550441  .00008818  00000-0  76046-4 0  9990
2 35867  96.9838 114.7319 0001592 315.9372 160.3074 15.69490991534867
Epoch (UTC): 22 March 2019 19:34:19
Eccentricity: 0.0001592
inclination: 96.9838°
perigee height: 359 km
apogee height: 361 km
right ascension of ascending node: 114.7319°
argument of perigee: 315.9372°
revolutions per day: 15.69490991
mean anomaly at epoch: 160.3074°
orbit number at epoch: 53486

The dashed part of the orbit path shows where the satellite is in the earth's shadow,  

DLR